Data start date =,1/14/2015
Data end date/time =,5/8/2024 12:00
""
""
Date/Time,Baldhill_Dam-Tailwater
,Temp-Water
UTC,F
,Ave
1/14/2015 12:00,36
1/15/2015 12:00,36
1/16/2015 12:00,36
1/17/2015 12:00,37
1/18/2015 12:00,37
1/19/2015 12:00,37
1/20/2015 12:00,37
1/21/2015 12:00,37
1/22/2015 12:00,36
1/23/2015 12:00,38
1/24/2015 12:00,37
1/25/2015 12:00,37
1/26/2015 12:00,38
1/27/2015 12:00,37
1/28/2015 12:00,38
1/29/2015 12:00,37
1/30/2015 12:00,37
1/31/2015 12:00,36
2/1/2015 12:00,35
2/2/2015 12:00,36
2/3/2015 12:00,37
2/4/2015 12:00,37
2/5/2015 12:00,36
2/6/2015 12:00,37
2/7/2015 12:00,37
2/8/2015 12:00,37
2/9/2015 12:00,37
2/10/2015 12:00,37
2/11/2015 12:00,36
2/12/2015 12:00,36
2/13/2015 12:00,37
2/14/2015 12:00,36
2/15/2015 12:00,36
2/16/2015 12:00,37
2/17/2015 12:00,36
2/18/2015 12:00,36
2/19/2015 12:00,36
2/20/2015 12:00,37
2/21/2015 12:00,37
2/22/2015 12:00,36
2/23/2015 12:00,36
2/24/2015 12:00,38
2/25/2015 12:00,37
2/26/2015 12:00,37
2/27/2015 12:00,37
2/28/2015 12:00,37
3/1/2015 12:00,37
3/2/2015 12:00,37
3/3/2015 12:00,37
3/4/2015 12:00,37
3/5/2015 12:00,37
3/6/2015 12:00,38
3/7/2015 12:00,39
3/8/2015 12:00,39
3/9/2015 12:00,40
3/10/2015 12:00,40
3/11/2015 12:00,41
3/12/2015 12:00,41
3/13/2015 12:00,40
3/14/2015 12:00,41
3/15/2015 12:00,42
3/16/2015 12:00,40
3/17/2015 12:00,40
3/18/2015 12:00,39
3/19/2015 12:00,39
3/20/2015 12:00,39
3/21/2015 12:00,38
3/22/2015 12:00,38
3/23/2015 12:00,39
3/24/2015 12:00,39
3/25/2015 12:00,40
3/26/2015 12:00,41
3/27/2015 12:00,38
3/28/2015 12:00,41
3/29/2015 12:00,43
3/30/2015 12:00,43
3/31/2015 12:00,43
4/1/2015 12:00,43
4/2/2015 12:00,43
4/3/2015 12:00,42
4/4/2015 12:00,43
4/5/2015 12:00,42
4/6/2015 12:00,40
4/7/2015 12:00,39
4/8/2015 12:00,40
4/9/2015 12:00,43
4/10/2015 12:00,42
4/11/2015 12:00,42
4/12/2015 12:00,43
4/13/2015 12:00,44
4/14/2015 12:00,45
4/15/2015 12:00,46
4/16/2015 12:00,47
4/17/2015 12:00,49
4/18/2015 12:00,49
4/19/2015 12:00,49
4/20/2015 12:00,48
4/21/2015 12:00,46
4/22/2015 12:00,47
4/23/2015 12:00,47
4/24/2015 12:00,47
4/25/2015 12:00,48
4/26/2015 12:00,49
4/27/2015 12:00,48
4/28/2015 12:00,50
4/29/2015 12:00,51
4/30/2015 12:00,50
5/1/2015 12:00,51
5/2/2015 12:00,51
5/3/2015 12:00,52
5/4/2015 12:00,53
5/5/2015 12:00,54
5/6/2015 12:00,54
5/7/2015 12:00,55
5/8/2015 12:00,55
5/9/2015 12:00,54
5/10/2015 12:00,53
5/11/2015 12:00,51
5/12/2015 12:00,51
5/13/2015 12:00,52
5/14/2015 12:00,51
5/15/2015 12:00,52
5/16/2015 12:00,53
5/17/2015 12:00,54
5/18/2015 12:00,51
5/19/2015 12:00,51
5/20/2015 12:00,53
5/21/2015 12:00,54
5/22/2015 12:00,56
5/23/2015 12:00,53
5/24/2015 12:00,55
5/25/2015 12:00,58
5/26/2015 12:00,57
5/27/2015 12:00,59
5/28/2015 12:00,60
5/29/2015 12:00,61
5/30/2015 12:00,61
5/31/2015 12:00,60
6/1/2015 12:00,59
6/2/2015 12:00,60
6/3/2015 12:00,61
6/4/2015 12:00,61
6/5/2015 12:00,61
6/6/2015 12:00,62
6/7/2015 12:00,62
10/1/2015 12:00,62
10/2/2015 12:00,61
10/3/2015 12:00,60
10/4/2015 12:00,59
10/5/2015 12:00,59
10/6/2015 12:00,59
10/7/2015 12:00,58
10/8/2015 12:00,58
10/9/2015 12:00,57
10/10/2015 12:00,56
10/11/2015 12:00,56
10/12/2015 12:00,56
10/13/2015 12:00,55
10/14/2015 12:00,55
10/15/2015 12:00,55
10/16/2015 12:00,53
10/17/2015 12:00,53
10/18/2015 12:00,52
10/19/2015 12:00,53
10/20/2015 12:00,53
10/21/2015 12:00,52
10/22/2015 12:00,52
10/23/2015 12:00,52
10/24/2015 12:00,51
10/25/2015 12:00,51
10/26/2015 12:00,51
10/27/2015 12:00,51
10/28/2015 12:00,50
10/29/2015 12:00,48
10/30/2015 12:00,47
10/31/2015 12:00,47
11/1/2015 12:00,47
11/2/2015 12:00,47
11/3/2015 12:00,47
11/4/2015 12:00,47
11/5/2015 12:00,46
11/6/2015 12:00,46
11/7/2015 12:00,45
11/8/2015 12:00,45
11/9/2015 12:00,45
11/10/2015 12:00,44
11/11/2015 12:00,44
11/12/2015 12:00,43
11/13/2015 12:00,42
11/14/2015 12:00,42
11/15/2015 12:00,42
11/16/2015 12:00,42
11/17/2015 12:00,42
11/18/2015 12:00,42
11/19/2015 12:00,40
11/20/2015 12:00,39
11/21/2015 12:00,38
11/22/2015 12:00,37
11/23/2015 12:00,37
11/24/2015 12:00,36
11/25/2015 12:00,36
11/26/2015 12:00,34
11/27/2015 12:00,34
11/28/2015 12:00,34
11/29/2015 12:00,34
11/30/2015 12:00,34
12/1/2015 12:00,34
12/2/2015 12:00,34
12/3/2015 12:00,34
12/4/2015 12:00,34
12/5/2015 12:00,34
12/6/2015 12:00,34
12/7/2015 12:00,34
12/8/2015 12:00,35
12/9/2015 12:00,35
12/10/2015 12:00,35
12/11/2015 12:00,35
12/12/2015 12:00,35
12/13/2015 12:00,35
12/14/2015 12:00,35
12/15/2015 12:00,34
12/16/2015 12:00,34
12/17/2015 12:00,34
12/18/2015 12:00,34
12/19/2015 12:00,34
12/20/2015 12:00,34
12/21/2015 12:00,34
12/22/2015 12:00,34
12/23/2015 12:00,34
12/24/2015 12:00,34
12/25/2015 12:00,34
12/26/2015 12:00,34
12/27/2015 12:00,34
12/28/2015 12:00,34
12/29/2015 12:00,34
12/30/2015 12:00,34
12/31/2015 12:00,34
1/1/2016 12:00,34
1/2/2016 12:00,34
1/3/2016 12:00,34
1/4/2016 12:00,34
1/5/2016 12:00,34
1/6/2016 12:00,34
1/7/2016 12:00,34
1/8/2016 12:00,34
1/9/2016 12:00,33
1/10/2016 12:00,33
1/11/2016 12:00,33
1/12/2016 12:00,33
1/13/2016 12:00,33
1/14/2016 12:00,33
1/15/2016 12:00,33
1/16/2016 12:00,33
1/17/2016 12:00,33
1/18/2016 12:00,33
1/19/2016 12:00,33
1/20/2016 12:00,34
1/21/2016 12:00,34
1/22/2016 12:00,34
1/23/2016 12:00,33
1/24/2016 12:00,34
1/25/2016 12:00,34
1/26/2016 12:00,34
1/27/2016 12:00,34
1/28/2016 12:00,34
1/29/2016 12:00,34
1/30/2016 12:00,34
1/31/2016 12:00,34
2/1/2016 12:00,34
2/2/2016 12:00,34
2/3/2016 12:00,34
2/4/2016 12:00,34
2/5/2016 12:00,34
2/6/2016 12:00,35
2/7/2016 12:00,35
2/8/2016 12:00,34
2/9/2016 12:00,34
2/10/2016 12:00,34
2/11/2016 12:00,34
2/12/2016 12:00,34
2/13/2016 12:00,34
2/14/2016 12:00,34
2/15/2016 12:00,35
2/16/2016 12:00,35
2/17/2016 12:00,35
2/18/2016 12:00,35
2/19/2016 12:00,36
2/20/2016 12:00,36
2/21/2016 12:00,35
2/22/2016 12:00,36
2/23/2016 12:00,36
2/24/2016 12:00,36
2/25/2016 12:00,36
2/26/2016 12:00,36
2/27/2016 12:00,36
2/28/2016 12:00,36
2/29/2016 12:00,35
3/1/2016 12:00,36
3/2/2016 12:00,36
3/3/2016 12:00,36
3/4/2016 12:00,36
3/5/2016 12:00,37
3/6/2016 12:00,37
3/7/2016 12:00,37
3/8/2016 12:00,37
3/9/2016 12:00,36
3/10/2016 12:00,37
3/11/2016 12:00,38
3/12/2016 12:00,38
3/13/2016 12:00,38
3/14/2016 12:00,38
3/15/2016 12:00,39
3/16/2016 12:00,37
3/17/2016 12:00,37
3/18/2016 12:00,37
3/19/2016 12:00,38
3/20/2016 12:00,38
3/21/2016 12:00,38
3/22/2016 12:00,38
3/23/2016 12:00,39
3/24/2016 12:00,40
3/25/2016 12:00,39
3/26/2016 12:00,38
3/27/2016 12:00,39
3/28/2016 12:00,40
3/29/2016 12:00,41
3/30/2016 12:00,43
3/31/2016 12:00,43
4/1/2016 12:00,42
4/2/2016 12:00,41
4/3/2016 12:00,41
4/4/2016 12:00,41
4/5/2016 12:00,41
4/6/2016 12:00,41
4/7/2016 12:00,41
4/8/2016 12:00,40
4/9/2016 12:00,40
4/10/2016 12:00,40
4/11/2016 12:00,40
4/12/2016 12:00,40
4/13/2016 12:00,41
4/14/2016 12:00,42
4/15/2016 12:00,44
4/16/2016 12:00,43
4/17/2016 12:00,43
4/18/2016 12:00,43
4/19/2016 12:00,43
4/20/2016 12:00,44
4/21/2016 12:00,45
4/22/2016 12:00,46
4/23/2016 12:00,47
4/24/2016 12:00,47
4/25/2016 12:00,46
4/26/2016 12:00,45
4/27/2016 12:00,45
4/28/2016 12:00,46
4/29/2016 12:00,47
4/30/2016 12:00,48
5/1/2016 12:00,49
5/2/2016 12:00,50
5/3/2016 12:00,49
5/4/2016 12:00,51
5/5/2016 12:00,51
5/6/2016 12:00,52
5/7/2016 12:00,54
5/8/2016 12:00,55
5/9/2016 12:00,54
5/10/2016 12:00,54
5/11/2016 12:00,55
5/12/2016 12:00,54
5/13/2016 12:00,54
5/14/2016 12:00,53
5/15/2016 12:00,53
5/16/2016 12:00,54
5/17/2016 12:00,55
5/18/2016 12:00,55
5/19/2016 12:00,55
5/20/2016 12:00,55
5/21/2016 12:00,56
5/22/2016 12:00,57
5/23/2016 12:00,58
5/24/2016 12:00,60
5/25/2016 12:00,61
5/26/2016 12:00,62
5/27/2016 12:00,62
9/23/2016 12:00,62
9/24/2016 12:00,62
9/25/2016 12:00,62
9/26/2016 12:00,62
9/27/2016 12:00,61
9/28/2016 12:00,61
9/29/2016 12:00,61
9/30/2016 12:00,60
10/1/2016 12:00,60
10/2/2016 12:00,60
10/3/2016 12:00,60
10/4/2016 12:00,61
10/5/2016 12:00,60
10/6/2016 12:00,58
10/7/2016 12:00,57
10/8/2016 12:00,55
10/9/2016 12:00,55
10/10/2016 12:00,55
10/11/2016 12:00,54
10/12/2016 12:00,53
10/13/2016 12:00,52
10/14/2016 12:00,51
10/15/2016 12:00,52
10/16/2016 12:00,52
10/17/2016 12:00,52
10/18/2016 12:00,51
10/19/2016 12:00,51
10/20/2016 12:00,50
10/21/2016 12:00,50
10/22/2016 12:00,50
10/23/2016 12:00,49
10/24/2016 12:00,49
10/25/2016 12:00,48
10/26/2016 12:00,48
10/27/2016 12:00,48
10/28/2016 12:00,48
10/29/2016 12:00,49
10/30/2016 12:00,48
10/31/2016 12:00,48
11/1/2016 12:00,48
11/2/2016 12:00,48
11/3/2016 12:00,47
11/4/2016 12:00,47
11/5/2016 12:00,47
11/6/2016 12:00,48
11/7/2016 12:00,48
11/8/2016 12:00,48
11/9/2016 12:00,47
11/10/2016 12:00,48
11/11/2016 12:00,47
11/12/2016 12:00,46
11/13/2016 12:00,46
11/14/2016 12:00,46
11/15/2016 12:00,46
11/16/2016 12:00,46
11/17/2016 12:00,45
11/18/2016 12:00,44
11/19/2016 12:00,42
11/20/2016 12:00,42
11/21/2016 12:00,41
11/22/2016 12:00,40
11/23/2016 12:00,40
11/24/2016 12:00,39
11/25/2016 12:00,39
11/26/2016 12:00,39
11/27/2016 12:00,39
11/28/2016 12:00,38
11/29/2016 12:00,38
11/30/2016 12:00,38
12/1/2016 12:00,37
12/2/2016 12:00,37
12/3/2016 12:00,36
12/4/2016 12:00,36
12/5/2016 12:00,36
12/6/2016 12:00,34
12/7/2016 12:00,33
12/9/2016 12:00,32
12/10/2016 12:00,32
12/11/2016 12:00,32
12/12/2016 12:00,32
12/13/2016 12:00,32
12/14/2016 12:00,32
12/15/2016 12:00,32
12/16/2016 12:00,32
12/18/2016 12:00,32
12/19/2016 12:00,32
12/20/2016 12:00,32
12/21/2016 12:00,33
12/22/2016 12:00,33
12/23/2016 12:00,33
12/24/2016 12:00,33
12/25/2016 12:00,33
12/27/2016 12:00,33
12/28/2016 12:00,33
12/29/2016 12:00,33
12/30/2016 12:00,33
12/31/2016 12:00,33
1/1/2017 12:00,33
1/2/2017 12:00,33
1/3/2017 12:00,33
1/4/2017 12:00,33
1/5/2017 12:00,33
1/6/2017 12:00,33
1/7/2017 12:00,33
1/8/2017 12:00,33
1/9/2017 12:00,33
1/10/2017 12:00,33
1/11/2017 12:00,33
1/12/2017 12:00,33
1/13/2017 12:00,33
1/14/2017 12:00,33
1/15/2017 12:00,33
1/16/2017 12:00,33
1/17/2017 12:00,33
1/18/2017 12:00,33
1/19/2017 12:00,33
1/20/2017 12:00,33
1/21/2017 12:00,33
1/22/2017 12:00,33
1/23/2017 12:00,33
1/24/2017 12:00,33
1/25/2017 12:00,33
1/26/2017 12:00,33
1/27/2017 12:00,33
1/28/2017 12:00,33
1/29/2017 12:00,33
1/30/2017 12:00,33
1/31/2017 12:00,33
2/1/2017 12:00,33
2/2/2017 12:00,33
2/3/2017 12:00,33
2/4/2017 12:00,33
2/5/2017 12:00,33
2/6/2017 12:00,33
2/7/2017 12:00,33
2/8/2017 12:00,33
2/9/2017 12:00,33
2/10/2017 12:00,33
2/11/2017 12:00,33
2/12/2017 12:00,33
2/13/2017 12:00,33
2/14/2017 12:00,33
2/15/2017 12:00,33
2/16/2017 12:00,34
2/17/2017 12:00,34
2/18/2017 12:00,34
2/19/2017 12:00,34
2/20/2017 12:00,34
2/21/2017 12:00,34
2/22/2017 12:00,34
2/23/2017 12:00,34
2/24/2017 12:00,34
2/25/2017 12:00,34
2/26/2017 12:00,34
2/27/2017 12:00,34
2/28/2017 12:00,34
3/1/2017 12:00,34
3/2/2017 12:00,34
3/3/2017 12:00,34
3/4/2017 12:00,35
3/5/2017 12:00,35
3/6/2017 12:00,35
3/7/2017 12:00,35
3/8/2017 12:00,35
3/9/2017 12:00,35
3/10/2017 12:00,35
3/11/2017 12:00,35
3/12/2017 12:00,35
3/13/2017 12:00,36
3/14/2017 12:00,36
3/15/2017 12:00,36
3/16/2017 12:00,36
3/17/2017 12:00,36
3/18/2017 12:00,36
3/19/2017 12:00,37
3/20/2017 12:00,37
3/21/2017 12:00,37
3/22/2017 12:00,37
3/23/2017 12:00,37
3/24/2017 12:00,37
3/25/2017 12:00,36
3/26/2017 12:00,37
3/27/2017 12:00,38
3/28/2017 12:00,38
3/29/2017 12:00,37
3/30/2017 12:00,38
3/31/2017 12:00,39
4/1/2017 12:00,39
4/2/2017 12:00,38
4/3/2017 12:00,38
4/4/2017 12:00,38
4/5/2017 12:00,38
4/6/2017 12:00,38
4/7/2017 12:00,37
4/8/2017 12:00,39
4/9/2017 12:00,40
4/10/2017 12:00,40
4/11/2017 12:00,40
4/12/2017 12:00,40
4/13/2017 12:00,43
4/14/2017 12:00,42
4/15/2017 12:00,44
4/16/2017 12:00,45
4/17/2017 12:00,46
4/18/2017 12:00,46
4/19/2017 12:00,47
4/20/2017 12:00,47
4/21/2017 12:00,49
4/22/2017 12:00,49
4/23/2017 12:00,49
4/24/2017 12:00,48
4/25/2017 12:00,46
4/26/2017 12:00,45
4/27/2017 12:00,45
4/28/2017 12:00,45
4/29/2017 12:00,46
4/30/2017 12:00,48
5/1/2017 12:00,48
5/2/2017 12:00,48
5/3/2017 12:00,48
5/4/2017 12:00,49
5/5/2017 12:00,51
5/6/2017 12:00,53
5/7/2017 12:00,55
5/8/2017 12:00,54
5/9/2017 12:00,54
5/10/2017 12:00,55
5/11/2017 12:00,56
5/12/2017 12:00,55
5/13/2017 12:00,58
5/14/2017 12:00,57
5/15/2017 12:00,60
5/16/2017 12:00,61
5/17/2017 12:00,60
5/18/2017 12:00,57
5/19/2017 12:00,58
5/20/2017 12:00,57
5/21/2017 12:00,56
5/22/2017 12:00,56
5/23/2017 12:00,55
5/24/2017 12:00,55
5/25/2017 12:00,55
5/26/2017 12:00,56
5/27/2017 12:00,56
5/28/2017 12:00,57
5/29/2017 12:00,57
5/30/2017 12:00,57
5/31/2017 12:00,58
6/1/2017 12:00,58
6/2/2017 12:00,58
6/3/2017 12:00,60
6/4/2017 12:00,61
9/24/2017 12:00,62
9/25/2017 12:00,61
9/26/2017 12:00,60
9/27/2017 12:00,60
9/28/2017 12:00,60
9/29/2017 12:00,60
9/30/2017 12:00,59
10/1/2017 12:00,59
10/2/2017 12:00,59
10/3/2017 12:00,59
10/4/2017 12:00,58
10/5/2017 12:00,58
10/6/2017 12:00,58
10/7/2017 12:00,57
10/8/2017 12:00,57
10/9/2017 12:00,57
10/10/2017 12:00,56
10/11/2017 12:00,55
10/12/2017 12:00,54
10/13/2017 12:00,54
10/14/2017 12:00,53
10/15/2017 12:00,52
10/16/2017 12:00,52
10/17/2017 12:00,52
10/18/2017 12:00,52
10/19/2017 12:00,51
10/20/2017 12:00,52
10/21/2017 12:00,52
10/22/2017 12:00,52
10/23/2017 12:00,51
10/24/2017 12:00,50
10/25/2017 12:00,50
10/26/2017 12:00,49
10/27/2017 12:00,46
10/28/2017 12:00,46
10/29/2017 12:00,45
10/30/2017 12:00,44
10/31/2017 12:00,43
11/1/2017 12:00,42
11/2/2017 12:00,42
11/3/2017 12:00,41
11/4/2017 12:00,40
11/5/2017 12:00,39
11/6/2017 12:00,38
11/7/2017 12:00,37
11/8/2017 12:00,36
11/9/2017 12:00,35
11/10/2017 12:00,35
11/11/2017 12:00,35
11/12/2017 12:00,35
11/13/2017 12:00,35
11/14/2017 12:00,35
11/15/2017 12:00,35
11/16/2017 12:00,34
11/17/2017 12:00,35
11/18/2017 12:00,34
11/19/2017 12:00,34
11/20/2017 12:00,34
11/21/2017 12:00,34
11/22/2017 12:00,33
11/23/2017 12:00,34
11/24/2017 12:00,34
11/25/2017 12:00,34
11/26/2017 12:00,34
11/27/2017 12:00,34
11/28/2017 12:00,35
11/29/2017 12:00,34
11/30/2017 12:00,35
12/1/2017 12:00,34
12/2/2017 12:00,34
12/3/2017 12:00,35
12/4/2017 12:00,34
12/5/2017 12:00,33
12/6/2017 12:00,32
12/8/2017 12:00,32
12/9/2017 12:00,32
12/10/2017 12:00,33
12/11/2017 12:00,33
12/12/2017 12:00,33
12/13/2017 12:00,33
12/14/2017 12:00,34
12/15/2017 12:00,34
12/16/2017 12:00,34
12/17/2017 12:00,34
12/18/2017 12:00,34
12/19/2017 12:00,34
12/20/2017 12:00,33
12/21/2017 12:00,33
12/22/2017 12:00,34
12/23/2017 12:00,34
12/24/2017 12:00,34
12/25/2017 12:00,34
12/26/2017 12:00,34
12/27/2017 12:00,34
12/28/2017 12:00,34
12/29/2017 12:00,34
12/30/2017 12:00,34
12/31/2017 12:00,34
1/1/2018 12:00,34
1/2/2018 12:00,34
1/3/2018 12:00,34
1/4/2018 12:00,34
1/5/2018 12:00,34
1/6/2018 12:00,34
1/7/2018 12:00,34
1/8/2018 12:00,35
1/9/2018 12:00,35
1/10/2018 12:00,35
1/11/2018 12:00,34
1/12/2018 12:00,34
1/13/2018 12:00,34
1/14/2018 12:00,34
1/15/2018 12:00,34
1/16/2018 12:00,34
1/17/2018 12:00,34
1/18/2018 12:00,35
1/19/2018 12:00,35
1/20/2018 12:00,35
1/21/2018 12:00,35
1/22/2018 12:00,35
1/23/2018 12:00,35
1/24/2018 12:00,35
1/25/2018 12:00,35
1/26/2018 12:00,35
1/27/2018 12:00,35
1/28/2018 12:00,35
1/29/2018 12:00,35
1/30/2018 12:00,35
1/31/2018 12:00,35
2/1/2018 12:00,34
2/2/2018 12:00,35
2/3/2018 12:00,34
2/4/2018 12:00,34
2/5/2018 12:00,35
2/6/2018 12:00,34
2/7/2018 12:00,34
2/8/2018 12:00,34
2/9/2018 12:00,35
2/10/2018 12:00,34
2/11/2018 12:00,35
2/12/2018 12:00,34
2/13/2018 12:00,34
2/14/2018 12:00,35
2/15/2018 12:00,35
2/16/2018 12:00,34
2/17/2018 12:00,35
2/18/2018 12:00,34
2/19/2018 12:00,34
2/20/2018 12:00,34
2/21/2018 12:00,35
2/22/2018 12:00,35
2/23/2018 12:00,35
2/24/2018 12:00,35
2/25/2018 12:00,35
2/26/2018 12:00,35
2/27/2018 12:00,35
2/28/2018 12:00,35
3/1/2018 12:00,36
3/2/2018 12:00,36
3/3/2018 12:00,36
3/4/2018 12:00,36
3/5/2018 12:00,35
3/6/2018 12:00,36
3/7/2018 12:00,36
3/8/2018 12:00,36
3/9/2018 12:00,36
3/10/2018 12:00,36
3/11/2018 12:00,36
3/12/2018 12:00,36
3/13/2018 12:00,36
3/14/2018 12:00,36
3/15/2018 12:00,35
3/16/2018 12:00,36
3/17/2018 12:00,36
3/18/2018 12:00,36
3/19/2018 12:00,35
3/20/2018 12:00,35
3/21/2018 12:00,35
3/22/2018 12:00,35
3/23/2018 12:00,35
3/24/2018 12:00,35
3/25/2018 12:00,34
3/26/2018 12:00,34
3/27/2018 12:00,34
3/28/2018 12:00,34
3/29/2018 12:00,34
3/30/2018 12:00,33
3/31/2018 12:00,33
4/1/2018 12:00,34
4/2/2018 12:00,34
4/3/2018 12:00,34
4/4/2018 12:00,34
4/5/2018 12:00,34
4/6/2018 12:00,34
4/7/2018 12:00,34
4/8/2018 12:00,34
4/9/2018 12:00,35
4/10/2018 12:00,35
4/11/2018 12:00,35
4/12/2018 12:00,35
4/13/2018 12:00,35
4/14/2018 12:00,35
4/15/2018 12:00,35
4/16/2018 12:00,35
4/17/2018 12:00,35
4/18/2018 12:00,36
4/19/2018 12:00,36
4/20/2018 12:00,36
4/21/2018 12:00,37
4/22/2018 12:00,37
4/23/2018 12:00,36
4/24/2018 12:00,36
4/25/2018 12:00,37
4/26/2018 12:00,37
4/27/2018 12:00,37
4/28/2018 12:00,37
4/29/2018 12:00,37
4/30/2018 12:00,38
5/1/2018 12:00,38
5/2/2018 12:00,38
5/3/2018 12:00,39
5/4/2018 12:00,40
5/5/2018 12:00,44
5/6/2018 12:00,46
5/7/2018 12:00,45
5/8/2018 12:00,47
5/9/2018 12:00,49
5/10/2018 12:00,50
5/11/2018 12:00,50
5/12/2018 12:00,52
5/13/2018 12:00,51
5/14/2018 12:00,52
5/15/2018 12:00,55
5/16/2018 12:00,55
5/17/2018 12:00,59
5/18/2018 12:00,57
5/19/2018 12:00,56
5/20/2018 12:00,57
5/21/2018 12:00,56
5/22/2018 12:00,56
5/23/2018 12:00,56
5/24/2018 12:00,56
5/25/2018 12:00,57
5/26/2018 12:00,59
9/21/2018 12:00,62
9/22/2018 12:00,62
9/23/2018 12:00,61
9/24/2018 12:00,60
9/25/2018 12:00,60
9/26/2018 12:00,59
9/27/2018 12:00,59
9/28/2018 12:00,57
9/29/2018 12:00,56
9/30/2018 12:00,55
10/1/2018 12:00,55
10/2/2018 12:00,54
10/3/2018 12:00,54
10/4/2018 12:00,53
10/5/2018 12:00,52
10/6/2018 12:00,51
10/7/2018 12:00,50
10/8/2018 12:00,50
10/9/2018 12:00,49
10/10/2018 12:00,47
10/11/2018 12:00,45
10/12/2018 12:00,45
10/13/2018 12:00,45
10/14/2018 12:00,44
10/15/2018 12:00,43
10/16/2018 12:00,43
10/17/2018 12:00,43
10/18/2018 12:00,43
10/19/2018 12:00,43
10/20/2018 12:00,43
10/21/2018 12:00,43
10/22/2018 12:00,43
10/23/2018 12:00,43
10/24/2018 12:00,43
10/25/2018 12:00,43
10/26/2018 12:00,43
10/27/2018 12:00,43
10/28/2018 12:00,43
10/29/2018 12:00,43
10/30/2018 12:00,43
10/31/2018 12:00,43
11/1/2018 12:00,43
11/2/2018 12:00,42
11/3/2018 12:00,42
11/4/2018 12:00,42
11/5/2018 12:00,42
11/6/2018 12:00,41
11/7/2018 12:00,40
11/8/2018 12:00,39
11/9/2018 12:00,38
11/10/2018 12:00,36
11/11/2018 12:00,36
11/12/2018 12:00,34
11/13/2018 12:00,34
11/14/2018 12:00,34
11/15/2018 12:00,34
11/16/2018 12:00,34
11/17/2018 12:00,34
11/18/2018 12:00,34
11/19/2018 12:00,34
11/20/2018 12:00,34
11/21/2018 12:00,34
11/22/2018 12:00,34
11/23/2018 12:00,35
11/24/2018 12:00,35
11/25/2018 12:00,34
11/26/2018 12:00,34
11/27/2018 12:00,34
11/28/2018 12:00,34
11/29/2018 12:00,35
11/30/2018 12:00,35
12/1/2018 12:00,35
12/2/2018 12:00,34
12/3/2018 12:00,34
12/4/2018 12:00,35
12/5/2018 12:00,35
12/6/2018 12:00,35
12/7/2018 12:00,35
12/8/2018 12:00,35
12/9/2018 12:00,35
12/10/2018 12:00,35
12/11/2018 12:00,35
12/12/2018 12:00,35
12/13/2018 12:00,36
12/14/2018 12:00,36
12/15/2018 12:00,36
12/16/2018 12:00,36
12/17/2018 12:00,35
12/18/2018 12:00,36
12/19/2018 12:00,36
12/20/2018 12:00,36
12/21/2018 12:00,36
12/22/2018 12:00,36
12/23/2018 12:00,36
12/24/2018 12:00,36
12/25/2018 12:00,36
12/26/2018 12:00,36
12/27/2018 12:00,35
12/28/2018 12:00,35
12/29/2018 12:00,35
12/30/2018 12:00,36
12/31/2018 12:00,35
1/1/2019 12:00,35
1/2/2019 12:00,36
1/3/2019 12:00,36
1/4/2019 12:00,36
1/5/2019 12:00,36
1/6/2019 12:00,36
1/7/2019 12:00,37
1/8/2019 12:00,36
1/9/2019 12:00,36
1/10/2019 12:00,36
1/11/2019 12:00,36
1/12/2019 12:00,36
1/13/2019 12:00,36
1/14/2019 12:00,36
1/15/2019 12:00,36
1/16/2019 12:00,36
1/17/2019 12:00,36
1/18/2019 12:00,35
1/19/2019 12:00,36
1/20/2019 12:00,35
1/21/2019 12:00,36
1/22/2019 12:00,36
1/23/2019 12:00,36
1/24/2019 12:00,36
1/25/2019 12:00,36
1/26/2019 12:00,36
1/27/2019 12:00,35
1/28/2019 12:00,36
1/29/2019 12:00,35
1/30/2019 12:00,35
1/31/2019 12:00,35
2/1/2019 12:00,36
2/2/2019 12:00,36
2/3/2019 12:00,36
2/4/2019 12:00,35
2/5/2019 12:00,35
2/6/2019 12:00,35
2/7/2019 12:00,35
2/8/2019 12:00,35
2/9/2019 12:00,35
2/10/2019 12:00,35
2/11/2019 12:00,35
2/12/2019 12:00,35
2/13/2019 12:00,35
2/14/2019 12:00,36
2/15/2019 12:00,35
2/16/2019 12:00,35
2/17/2019 12:00,35
2/18/2019 12:00,35
2/19/2019 12:00,35
2/20/2019 12:00,36
2/21/2019 12:00,36
2/22/2019 12:00,35
2/23/2019 12:00,36
2/24/2019 12:00,36
2/25/2019 12:00,35
2/26/2019 12:00,35
2/27/2019 12:00,35
2/28/2019 12:00,35
3/1/2019 12:00,35
3/2/2019 12:00,35
3/3/2019 12:00,35
3/4/2019 12:00,35
3/5/2019 12:00,35
3/6/2019 12:00,35
3/7/2019 12:00,35
3/8/2019 12:00,35
3/9/2019 12:00,35
3/10/2019 12:00,35
3/11/2019 12:00,35
3/12/2019 12:00,35
3/13/2019 12:00,35
3/14/2019 12:00,35
3/15/2019 12:00,35
3/16/2019 12:00,35
3/17/2019 12:00,35
3/18/2019 12:00,35
3/19/2019 12:00,35
3/20/2019 12:00,35
3/21/2019 12:00,35
3/22/2019 12:00,35
3/23/2019 12:00,35
3/24/2019 12:00,35
3/25/2019 12:00,35
3/26/2019 12:00,35
3/27/2019 12:00,35
3/28/2019 12:00,35
3/29/2019 12:00,35
3/30/2019 12:00,35
3/31/2019 12:00,35
4/1/2019 12:00,35
4/2/2019 12:00,35
4/3/2019 12:00,35
4/4/2019 12:00,35
4/5/2019 12:00,35
4/6/2019 12:00,34
4/7/2019 12:00,34
4/8/2019 12:00,35
4/9/2019 12:00,35
4/10/2019 12:00,35
4/11/2019 12:00,34
4/12/2019 12:00,34
4/13/2019 12:00,35
4/14/2019 12:00,35
4/15/2019 12:00,35
4/16/2019 12:00,35
4/17/2019 12:00,35
4/18/2019 12:00,35
4/19/2019 12:00,35
4/20/2019 12:00,36
4/21/2019 12:00,36
4/22/2019 12:00,37
4/23/2019 12:00,37
4/24/2019 12:00,38
4/25/2019 12:00,40
4/26/2019 12:00,41
4/27/2019 12:00,43
4/28/2019 12:00,43
4/29/2019 12:00,42
4/30/2019 12:00,42
5/1/2019 12:00,42
5/2/2019 12:00,43
5/3/2019 12:00,43
5/4/2019 12:00,44
5/5/2019 12:00,45
5/6/2019 12:00,46
5/7/2019 12:00,47
5/8/2019 12:00,48
5/9/2019 12:00,49
5/10/2019 12:00,48
5/11/2019 12:00,48
5/12/2019 12:00,49
5/13/2019 12:00,49
5/14/2019 12:00,51
5/15/2019 12:00,53
5/16/2019 12:00,53
5/17/2019 12:00,52
5/18/2019 12:00,52
5/19/2019 12:00,51
5/20/2019 12:00,51
5/21/2019 12:00,52
5/22/2019 12:00,53
5/23/2019 12:00,52
5/24/2019 12:00,53
5/25/2019 12:00,53
5/26/2019 12:00,54
5/27/2019 12:00,54
5/28/2019 12:00,54
5/29/2019 12:00,54
5/30/2019 12:00,55
5/31/2019 12:00,58
6/1/2019 12:00,61
6/2/2019 12:00,61
6/3/2019 12:00,60
6/4/2019 12:00,58
6/5/2019 12:00,61
6/6/2019 12:00,62
6/7/2019 12:00,61
6/8/2019 12:00,61
9/15/2019 12:00,62
9/29/2019 12:00,62
9/30/2019 12:00,61
10/1/2019 12:00,60
10/2/2019 12:00,58
10/3/2019 12:00,57
10/4/2019 12:00,56
10/5/2019 12:00,55
10/6/2019 12:00,54
10/7/2019 12:00,54
10/8/2019 12:00,53
10/9/2019 12:00,53
10/10/2019 12:00,51
10/11/2019 12:00,48
10/12/2019 12:00,46
10/13/2019 12:00,45
10/14/2019 12:00,45
10/15/2019 12:00,44
10/16/2019 12:00,43
10/17/2019 12:00,42
10/18/2019 12:00,43
10/19/2019 12:00,43
10/20/2019 12:00,42
10/21/2019 12:00,42
10/22/2019 12:00,41
10/23/2019 12:00,41
10/24/2019 12:00,41
10/25/2019 12:00,41
10/26/2019 12:00,41
10/27/2019 12:00,41
10/28/2019 12:00,41
10/29/2019 12:00,40
10/30/2019 12:00,39
10/31/2019 12:00,38
11/1/2019 12:00,37
11/2/2019 12:00,37
11/3/2019 12:00,37
11/4/2019 12:00,37
11/5/2019 12:00,36
11/6/2019 12:00,35
11/7/2019 12:00,34
11/8/2019 12:00,34
11/9/2019 12:00,35
11/10/2019 12:00,34
11/11/2019 12:00,34
11/12/2019 12:00,34
11/13/2019 12:00,34
11/14/2019 12:00,34